Location: Gollag?dem
(17.0207°N, 80.7261°E)
Time: 13:22:44
(UTC+00:00)

CZ-4B R/B - Pass Details

Date: 03 August 2024
Orbit: 700 x 800 km, 98.9° (Epoch: 12 September)

Event Time Altitude Azimuth Distance (km) Brightness Sun altitude
Rises 14:13:23 0° 175° (S) 3,281 6.5 -15.2°
Reaches altitude 10° 14:15:45 10° 179° (S) 2,345 5.8 -15.8°
Maximum altitude 14:20:50 58° 258° (WSW) 904 4.1 -16.9°
Drops below altitude 10° 14:25:49 10° 337° (NNW) 2,296 6.6 -18.0°
Sets 14:28:08 0° 341° (NNW) 3,207 7.4 -18.4°
